Location: *
(42.5628°N, 2.3633°E)
Time: 01:13:01
(UTC+00:00)

Meteor 1-11 - Pass Details

Date: 30 March 2020
Orbit: 841 x 886 km, 81.2° (Epoch: 31 May)

Event Time Altitude Azimuth Distance (km) Brightness Sun altitude
Rises 20:56:46 0° 349° (N) 3,495 8.1 -28.3°
Reaches altitude 10° 20:59:14 10° 349° (N) 2,548 7.3 -28.7°
Enters shadow 21:04:41 79° 336° (NNW) 895 4.2 -29.5°
